Weather History for Spirit of St Louis, MO

Change the Weather History Date:

Wednesday, January 16, 2013

  Actual Average Record
Temperature  
Mean Temperature 28 °F -  
Max Temperature 42 °F 36 °F - (-1)
Min Temperature 14 °F 18 °F - (-1)
Degree Days  
Heating Degree Days 37    
Moisture  
Dew Point 18 °F    
Average Humidity 68    
Maximum Humidity 88    
Minimum Humidity 40    
Precipitation  
Precipitation 0.00 in - - ()
Sea Level Pressure  
Sea Level Pressure 30.14 in    
Wind  
Wind Speed 4 mph (WSW)    
Max Wind Speed 15 mph    
Max Gust Speed 18 mph    
Visibility 10 miles    
Events      
Averages and records for this station are not official NWS values.
T = Trace of Precipitation, MM = Missing Value Source: NWS Daily Summary

Daily Weather History Graph

Daily Weather History Graph

Search for Another Location

Airport:

Trip Planner

Search our weather history database for the weather conditions in past years. The results will help you decide how hot, cold, wet, or windy it might be!

Date:

Astronomy

Jan. 16, 2013 Rise Set
Actual Time 7:18 AM CST 5:06 PM CST
Civil Twilight 6:49 AM CST 5:35 PM CST
Nautical Twilight 6:16 AM CST 6:08 PM CST
Astronomical Twilight 5:45 AM CST 6:40 PM CST
Moon 9:59 AM CST (1/16) 10:53 PM CST (1/16)
Length of Visible Light 10h 46m
Length of Day
9h 48m
Waxing Crescent, 28% of the Moon is Illuminated
Jan 16
Waxing Crescent
Jan 18
First Quarter
Jan 26
Full
Feb 3
Last Quarter
Feb 10
New

Hourly Weather History & Observations

Time (CST) Temp. Windchill Dew Point Humidity Pressure Visibility Wind Dir Wind Speed Gust Speed Precip Events Conditions
12:54 AM 21.9 °F - 18.0 °F 85% 30.19 in 10.0 mi Calm Calm - N/A   Clear
1:54 AM 19.0 °F 12.3 °F 16.0 °F 88% 30.20 in 9.0 mi WSW 4.6 mph - N/A   Clear
2:54 AM 17.1 °F 11.7 °F 14.0 °F 88% 30.19 in 9.0 mi WSW 3.5 mph - N/A   Clear
3:54 AM 17.1 °F - 14.0 °F 88% 30.18 in 9.0 mi Calm Calm - N/A   Clear
4:54 AM 17.1 °F - 12.9 °F 84% 30.16 in 9.0 mi Calm Calm - N/A   Clear
5:54 AM 16.0 °F - 12.0 °F 84% 30.15 in 10.0 mi Calm Calm - N/A   Clear
6:54 AM 14.0 °F - 10.0 °F 84% 30.17 in 10.0 mi Calm Calm - N/A   Clear
7:54 AM 16.0 °F - 12.0 °F 84% 30.18 in 9.0 mi Calm Calm - N/A   Clear
8:54 AM 24.1 °F - 18.0 °F 77% 30.17 in 10.0 mi Calm Calm - N/A   Clear
9:54 AM 28.9 °F 19.8 °F 17.1 °F 61% 30.16 in 10.0 mi WSW 10.4 mph - N/A   Clear
10:54 AM 32.0 °F 24.8 °F 15.1 °F 50% 30.13 in 10.0 mi SW 8.1 mph - N/A   Partly Cloudy
11:54 AM 35.1 °F 27.9 °F 18.0 °F 50% 30.11 in 10.0 mi West 9.2 mph - N/A   Clear
12:54 PM 39.2 °F 33.6 °F 19.4 °F 45% 30.05 in 10.0 mi West 8.1 mph - N/A   Clear
1:54 PM 41.0 °F 34.3 °F 19.4 °F 42% 30.04 in 10.0 mi WSW 11.5 mph 18.4 mph N/A   Clear
2:54 PM 42.1 °F 34.5 °F 19.0 °F 40% 30.06 in 10.0 mi WSW 15.0 mph - N/A   Partly Cloudy
3:54 PM 41.0 °F 34.3 °F 19.9 °F 43% 30.07 in 10.0 mi WSW 11.5 mph - N/A   Clear
4:54 PM 37.9 °F 31.5 °F 21.0 °F 51% 30.09 in 10.0 mi WSW 9.2 mph - N/A   Clear
5:54 PM 35.1 °F 31.0 °F 19.9 °F 54% 30.11 in 10.0 mi West 4.6 mph - N/A   Clear
6:54 PM 33.1 °F 28.7 °F 23.0 °F 66% 30.13 in 10.0 mi WSW 4.6 mph - N/A   Overcast
7:54 PM 33.1 °F - 21.9 °F 64% 30.14 in 10.0 mi Calm Calm - N/A   Scattered Clouds
8:54 PM 28.9 °F 22.8 °F 21.9 °F 75% 30.14 in 10.0 mi WSW 5.8 mph - N/A   Clear
9:54 PM 30.0 °F 25.2 °F 21.9 °F 72% 30.14 in 10.0 mi SSW 4.6 mph - N/A   Clear
10:54 PM 28.9 °F - 21.9 °F 75% 30.14 in 10.0 mi Calm Calm - N/A   Clear
11:54 PM 30.9 °F - 24.1 °F 76% 30.15 in 10.0 mi Calm Calm - N/A   Overcast